User: anonymous   Login
Location: Ash Swamp
(41.5170°N, 74.6157°W)
Time: 07:25:39
(UTC+00:00)
Language:

Cosmos 2061 Rocket - Orbit

View from above orbital plane
View from above orbital plane
View from above satellite
View from above satellite

Ground track
Ground track

The orbit data is extracted from the following two-line orbital elements,

1 20528U 90023B   20265.54296069 +.00000131 +00000-0 +12572-3 0  9992
2 20528 082.9317 262.4326 0030781 313.7598 161.5132 13.72875047528366
Epoch (UTC): 21 September 2020 13:01:51
Eccentricity: 0.0030781
inclination: 82.9317°
perigee height: 966 km
apogee height: 1012 km
right ascension of ascending node: 262.4326°
argument of perigee: 313.7598°
revolutions per day: 13.72875047
mean anomaly at epoch: 161.5132°
orbit number at epoch: 52836

The dashed part of the orbit path shows where the satellite is in the earth's shadow,  

DLR